User: anonymous   Login
Location: Harbor Island
(32.3990°N, 80.4435°W)
Time: 10:05:12
(UTC-05:00)
Language:

Cosmos 1455 - Orbit

View from above orbital plane
View from above orbital plane
View from above satellite
View from above satellite

Ground track
Ground track

The orbit data is extracted from the following two-line orbital elements,

1 14032U 83037A   16037.17488493  .00003312  00000-0  17168-3 0  9997
2 14032  82.5150 217.5953 0017630 200.7325 159.3195 15.15711206786059
Epoch (UTC): 06 February 2016 04:11:50
Eccentricity: 0.0017630
inclination: 82.5150°
perigee height: 506 km
apogee height: 531 km
right ascension of ascending node: 217.5953°
argument of perigee: 200.7325°
revolutions per day: 15.15711206
mean anomaly at epoch: 159.3195°
orbit number at epoch: 78605

The dashed part of the orbit path shows where the satellite is in the earth's shadow,  

DLR